Weather in Gavrilovka

Russia / Udmurt Republic     57°02′00″N   54°04′28″E
temp.,
°C
wind,
m/s
gust,
m/s
humid.,
%
clouds,
%
prec.,
mm/h
press.,
hPa
HPBL,
m
26 february, fri
fri2601:00−27se35970 0.0 102594
04:00−27se35960 0.0 102596
07:00−27se369886 0.0 1024142
10:00−23se369691 0.0 1023264
13:00−19se4790100 0.0 1022467
16:00−17se4890100 0.0 1020504
19:00−20sse4119599 0.0 1018324
22:00−20se5129497 0.0 1015373
27 february, sat
sat2701:00−18se61390100 0.0 1011473
04:00−16se61391100 0.1 1008613
07:00−15se61294100 1.2 1005702
10:00−14se61093100 2.5 1004685
13:00−11ese5991100 0.6 1002721
16:00−10e5891100 0.9 1003733
19:00−11ene4109397 0.3 1003433
22:00−14ene5109398 0.4 1004353
28 february, sun
sun2801:00−16ene5109398 0.1 1004346
04:00−17ne499399 0.2 1006359
07:00−17ne4995100 0.2 1006388
10:00−16ne5891100 0.3 1008422
13:00−14nne5789100 0.0 1008527
16:00−14nne5889100 0.1 1010605
19:00−17nne4109399 0.0 1012298
22:00−18nne489563 0.0 1014177
1 march, mon
mon101:00−20nne37960 0.0 1015140
04:00−22nne36960 0.0 1018119
07:00−24nne35940 0.0 101995
10:00−19nne35890 0.0 1021232
13:00−14n23810 0.0 1021388
16:00−12nw128310 0.0 1021410
19:00−17sw12916 0.0 102120
22:00−18sw22965 0.0 102120
2 march, tue
tue201:00−19sw349920 0.0 102065
04:00−20ssw369829 0.0 1018123
07:00−20ssw5109783 0.0 1016249
10:00−17ssw6119491 0.0 1014365
13:00−13ssw61193100 0.3 1012469
16:00−11ssw61193100 1.0 1010596
19:00−11ssw51094100 0.9 1009500
22:00−11ssw4995100 1.6 1008378